Regional Weather Roundup
Issued by NWS

Home | Current Version | Previous Version | Text Only | Print | Product List | Glossary On
Versions: 1 2 3 4 5 6 7 8 9 10 11 12 13 14 15 16 17 18 19 20 21 22 23 24 25 26 27 28 29 30 31 32 33 34 35 36 37 38 39 40 41 42 43 44 45 46 47 48 49 50
000
ASUS44 KEWX 280902
RWRTX
SOUTH TEXAS REGIONAL WEATHER ROUNDUP
NATIONAL WEATHER SERVICE AUSTIN/SAN ANTONIO TX
300 AM CST SUN DEC 28 2014

NOTE: "FAIR" INDICATED FEW OR NO CLOUDS BELOW 12,000 FEET WITH NO
SIGNIFICANT WEATHER AND/OR OBSTRUCTIONS TO VISIBILITY.

* - THESE STATIONS ARE NOT NWS OR FAA STATIONS...AND ARE NOT SUBJECT
    TO NWS AND FAA QUALITY CONTROL.

TXZ171-172-183>190-281000-
TEXAS HILL COUNTRY AND EDWARDS PLATEAU

CITY           SKY/WX    TMP DP  RH WIND       PRES   REMARKS
JUNCTION       CLOUDY    36  22  56 N8        30.25R WCI  30
*LLANO         CLOUDY    37  27  65 N10       30.31R WCI  30
BURNET         CLOUDY    36  24  62 N12       30.28R WCI  28
*HORSESHOE BAY DRIZZLE   37  26  62 N8G17     30.28R WCI  31
*KERRVILLE     LGT RAIN  36  28  72 N12       30.21F WCI  28
*FREDERICKSBRG DRIZZLE   34  25  69 N12       30.22F WCI  25
*ROCKSPRINGS   LGT RAIN  34  30  86 N8        30.25R WCI  27
*BOERNE STAGE  CLOUDY    37  28  70 N14G20    30.21F WCI  29
HONDO          CLOUDY    42  29  59 NE20G25   30.18F WCI  33
*UVALDE        LGT RAIN  41  31  68 N12       30.23R WCI  34
DEL RIO        CLOUDY    43  31  62 N8        30.27S WCI  38
LAUGHLIN AFB   NOT AVBL
CARRIZO SPRGS  CLOUDY    43  39  87 NW6       30.22S WCI  39
$$

TXZ173-191>194-202-209-217>225-228-281000-
CENTRAL AND SOUTH CENTRAL TEXAS

CITY           SKY/WX    TMP DP  RH WIND       PRES   REMARKS
GEORGETOWN     CLOUDY    37  25  60 N13       30.26R WCI  29
AUSTIN/BERGSTM DRIZZLE   39  31  72 N18       30.23F WCI  30
AUSTIN/MABRY   CLOUDY    39  27  62 N8        30.25F WCI  33
*AUSTIN/EXEC   LGT RAIN  37  28  70 N15       30.26S WCI  28
*LAGO VISTA    CLOUDY    37  26  64 N8G18     30.25R WCI  31
SAN MARCOS     CLOUDY    39  30  70 NW15      30.25R WCI  31
NEW BRAUNFELS  CLOUDY    42  32  67 N22       30.23R WCI  33
RANDOLPH AFB   CLOUDY    41  31  66 N17G26    30.20F WCI  33
PT SAN ANTONIO LGT RAIN  43  32  65 N18       30.18R WCI  34
SAN ANTONIO    CLOUDY    43  31  62 N10G21    30.20F WCI  37
STINSON FIELD  CLOUDY    44  32  62 N14G24    30.18F WCI  37
*PLEASANTON    RAIN      44  38  81 N10       30.18F WCI  38
*LA GRANGE     LGT RAIN  42  37  84 N10G17    30.22R WCI  36
*GIDDINGS      LGT RAIN  39  33  77 N13G20    30.27R WCI  31
*GONZALES      RAIN      41  37  88 N6        30.21F WCI  37
$$

TXZ163>164-176>182-195>201-210>213-226-227-235-281000-
SOUTHEAST TEXAS

CITY           SKY/WX    TMP DP  RH WIND       PRES   REMARKS
COLLEGE STN    LGT RAIN  40  34  79 NW12      30.24R WCI  33
*BRYAN         DRIZZLE   39  34  80 N12       30.24F WCI  32
*CALDWELL      LGT RAIN  37  32  81 NW9       30.30R WCI  31
*CROCKETT      CLOUDY    41  37  87 N8        30.20F WCI  36
*BRENHAM       RAIN      41  37  86 NW9G20    30.25R WCI  35
HUNTSVILLE     LGT RAIN  39  37  92 NW10      30.22R WCI  32
CONROE         LGT RAIN  40  38  93 N10       30.19R WCI  33
HOUSTON BUSH   LGT RAIN  44  41  89 N10       30.17S WCI  39
HOUSTON HOBBY  CLOUDY    46  43  89 N13       30.15F WCI  40
*HOUSTON SW AP CLOUDY    40  39  97 N9        30.16F WCI  33
PEARLAND       LGT RAIN  47  44  90 N10       30.15F WCI  42
HOUSTON HOOKS  RAIN      42  40  92 N6        30.17F WCI  38
ELLINGTON FLD  NOT AVBL
SUGAR LAND     CLOUDY    44  41  89 N10       30.16S WCI  39
*HOUSTON EXEC  LGT RAIN  41  39  93 N13       30.21R WCI  34
*CLEVELAND MUN LGT RAIN  44  43  97 N6        30.18S WCI  40
*WHARTON       LGT RAIN  42  40  93 N12G18    30.20R WCI  35
*COLUMBUS      LGT RAIN  40  37  92 N14G20    30.20S WCI  32
$$

TXZ214>216-236>238-281000-
THE UPPER TEXAS COAST

CITY           SKY/WX    TMP DP  RH WIND       PRES   REMARKS
*ORANGE        RAIN      49  48  97 NW7       30.16R WCI  46
PORT ARTHUR    LGT RAIN  50  48  93 N12       30.14S WCI  46
GALVESTON      CLOUDY    49  48  97 N21       30.14F WCI  42
ANGLETON       RAIN      45  45 100 N13       30.15S WCI  39
*BAY CITY      DRIZZLE   46  46  98 N8        30.16R WCI  42
PALACIOS       LGT RAIN  45  42  89 N20       30.14  WCI  37
$$

TXZ229>234-239>247-281000-
TEXAS COASTAL BEND AND RIO GRANDE PLAINS

CITY           SKY/WX    TMP DP  RH WIND       PRES   REMARKS
VICTORIA       LGT RAIN  43  40  89 N16       30.18F WCI  35
*BEEVILLE      LGT RAIN  43  42  96 N8G17     30.19R WCI  38
ROCKPORT       RAIN      47  43  86 N14       30.17R WCI  41
*PORT ARANSAS  DRIZZLE   48  45  88 N14       30.15R WCI  43
*PORT LAVACA   LGT RAIN  44  42  95 N14G22    30.16F WCI  37
*INGLESIDE     LGT RAIN  49  43  81 N15       30.15F WCI  43
CORPUS CHRISTI TSTM      48  43  82 NE13      30.16F WCI  43
CORPUS NAS     TSTM      48  46  93 N16       30.16R WCI  42
*ROBSTOWN      NOT AVBL
ALICE          LGT RAIN  48  45  89 NW7       30.19R WCI  45
KINGSVILLE NAS TSTM      48  46  93 NW12      30.18R WCI  43
COTULLA        LGT RAIN N/A N/A N/A W6        30.23R
*FAITH RANCH   CLOUDY    41  39  93 NW10G16   30.23S WCI  35
LAREDO         NOT AVBL
$$

TXZ248>255-281000-
DEEP SOUTH TEXAS

CITY           SKY/WX    TMP DP  RH WIND       PRES   REMARKS
BROWNSVILLE    CLOUDY    51  49  92 N10       30.10F
PORT ISABEL    CLOUDY    53  51  93 N18       30.07F
*SOUTH PADRE   CLOUDY    57  55  94 E18G24    30.10S
HARLINGEN      CLOUDY    51  48  89 N10       30.10F
*HEBBRONVILLE  LGT RAIN  46  44  95 N14       30.16F WCI  39
MCALLEN        CLOUDY    51  47  86 NW10      30.17R
*WESLACO       CLOUDY    50  46  86 NE14G20   30.10F WCI  45
FALFURRIAS     CLOUDY    48  45  90 N7        30.16S WCI  44
EDINBURG       CLOUDY    51  47  84 N8        30.13R
*ZAPATA        NOT AVBL
$$

TXZ213>215-236>238-242>244-246-247-251-254-255-281000-
CMAN STATIONS

STATION/POSITION TIME  TEMP    WIND        PRES    WAVE
                       AIR SEA DIR/SP/G            HT/PER
                 (UTC) (F)     (DEG/KT/KT) (MB)    (FT/S)
SABINE PASS      0800   51 60  350/ 13/ 18 1019.9
SEA RIM ST PARK  0800   49     360/ 12/ 15 1020.6
NORTH JETTY/GLS  0800   49 62   20/ 15/ 18   N/A
MORGANS POINT    0800   47     360/  5/ 12 1021.5
MISSION/ARANSAS  0800   47      40/ 14     1022.0
PORT O`CONNOR    0800          350/ 20/ 23   N/A
PORT ARANSAS     0800   49 62  360/ 16/ 19 1020.5
MALAQUITE BEACH  0800   50 64  360/ 16/ 17 1020.3
BAFFIN BAY       0800   50     360/ 12/ 15 1020.9
PORT ISABEL      0800   55 64  350/ 16/ 21 1019.1
$$

GMZ080-GMZ150>470-281000-
OFFSHORE BUOY REPORTS

STATION/POSITION TIME  TEMP    WIND        PRES    WAVE
                       AIR SEA DIR/SP/G            HT/PER
                 (UTC) (F)     (DEG/KT/KT) (MB)    (FT/S)
20 E GALVESTON   0900   52 61   10/ 19/ 23 1019.1    4/ 4
90 E PT ARANSAS  0900   57 72   10/ 19/ 23 1019.5    6/ 6
200 E PT ISABEL  0800   73 73  200/  4/  6 1017.8    4/ 7
$$



USA.gov is the U.S. government's official web portal to all federal, state and local government web resources and services.